FENGYUN 2H (43491 NORAD) Tracking and Keplerian Element Data

This shows tracking and keplerian element data for the satellite.

Feedback or suggestion? Click here.




ElementValue
Catalog43491
NameFENGYUN 2H
Epoch Orbit331
Epoch Day112.87063354
Epoch Year2019
RAAN282.5996
Inclination1.6373
Eccentricity0.0002143
Argument of Perigee234.0955
Mean Anonmoly86.2352
Mean Motion1.00274881
Decay Rate-1.43E-06
L11 43491U 18050A 19112.87063354 -.00000143 00000-0 00000+0 0 9993
L22 43491 1.6373 282.5996 0002143 234.0955 86.2352 1.00274881 3316

Live tracking and technical data element details for FENGYUN 2H (NORAD 43491). FENGYUN 2H can be tracked NOW for your location showing map with azimuth and elevation plus other details from your city location.

Track the satellite on the map from your city or location and see movement details for azimuth, elevation, latitude, longitude, range, height, and movement on the map or in text.







IsCatalogInMostPopularTable: catalog: 43491, numindb: 105
Update: records affected: 1



GetName: 43491 FENGYUN 2H

Hit Count: updated at: Tue, 23 Apr 2019 20:43:18 GMT